Driggs, ID

11:12 AM MST on December 16, 2017 (GMT -0700)
Driggs

Weather History for KDIJ - January, 2013

Change the Weather History Date:

Saturday, January 19, 2013

  Actual Average (KJAC) Record (KJAC)
Temperature  
Mean Temperature 6 °F -  
Max Temperature 20 °F 28 °F 43 °F (1971)
Min Temperature -9 °F 3 °F -37 °F (1963)
Degree Days  
Heating Degree Days 60    
Moisture  
Dew Point -4 °F    
Average Humidity 81    
Maximum Humidity 88    
Minimum Humidity 65    
Precipitation  
Precipitation 0.00 in - - ()
Sea Level Pressure  
Sea Level Pressure 30.55 in    
Wind  
Wind Speed 2 mph (East)    
Max Wind Speed 7 mph    
Max Gust Speed -    
Visibility 7 miles    
Events Fog , Snow    
Averages and records for this station are not official NWS values.
T = Trace of Precipitation, MM = Missing Value Source: NWS Daily Summary

Daily Weather History Graph

Daily Weather History Graph

Search for Another Location

Airport or City:

Trip Planner

Search our weather history database for the weather conditions in past years. The results will help you decide how hot, cold, wet, or windy it might be!

Date:

Astronomy

Jan. 19, 2013 Rise Set
Actual Time 7:52 AM MST 5:18 PM MST
Civil Twilight 7:20 AM MST 5:50 PM MST
Nautical Twilight 6:45 AM MST 6:25 PM MST
Astronomical Twilight 6:11 AM MST 6:59 PM MST
Moon 11:48 AM MST (1/19) 1:27 AM MST (1/19)
Length of Visible Light 10h 29m
Length of Day
9h 25m
First Quarter, 58% of the Moon is Illuminated
Jan 19
First Quarter
Jan 26
Full
Feb 3
Last Quarter
Feb 10
New
Feb 17
First Quarter

Hourly Weather History & Observations

Time (MST) Temp. Windchill Dew Point Humidity Pressure Visibility Wind Dir Wind Speed Gust Speed Precip Events Conditions
12:24 AM -9.4 °F -18.6 °F -14.8 °F 77% 30.35 in 1.5 mi NE 3.5 mph - N/A   Haze
12:31 AM -9.4 °F -20.9 °F -14.8 °F 77% 30.35 in 1.2 mi NNE 4.6 mph - N/A   Haze
12:33 AM -9.4 °F -18.6 °F -14.8 °F 77% 30.35 in 2.5 mi NNE 3.5 mph - N/A   Haze
12:40 AM -7.6 °F - -11.2 °F 84% 30.35 in 10.0 mi Calm Calm - N/A   Clear
12:56 AM -4.9 °F -13.4 °F -9.9 °F 79% 30.62 in 0.5 mi NE 3.5 mph - N/A   Haze
1:02 AM -0.4 °F -8.3 °F -4.0 °F 85% 30.36 in 1.2 mi East 3.5 mph - N/A   Clear
1:09 AM 1.4 °F -6.2 °F -2.2 °F 85% 30.37 in 10.0 mi ESE 3.5 mph - N/A   Clear
1:22 AM 1.4 °F - -2.2 °F 85% 30.37 in 4.0 mi Calm Calm - N/A   Scattered Clouds
1:24 AM 1.4 °F - -2.2 °F 85% 30.37 in 1.8 mi Calm Calm - N/A   Mostly Cloudy
1:26 AM 1.4 °F - -2.2 °F 85% 30.37 in 1.0 mi Calm Calm - N/A   Mostly Cloudy
1:32 AM 1.4 °F - -4.0 °F 78% 30.36 in 0.5 mi Calm Calm - N/A   Haze
1:39 AM -2.2 °F - -5.8 °F 85% 30.37 in 0.5 mi Calm Calm - N/A Fog Light Freezing Fog
1:47 AM -4.0 °F -12.4 °F -9.4 °F 78% 30.37 in 1.0 mi ESE 3.5 mph - N/A   Haze
1:49 AM -4.0 °F -12.4 °F -7.6 °F 85% 30.36 in 3.0 mi ESE 3.5 mph - N/A   Partly Cloudy
1:56 AM 0.1 °F -7.7 °F -4.0 °F 83% 30.58 in 10.0 mi ESE 3.5 mph - N/A   Clear
2:56 AM -9.9 °F - -15.0 °F 78% 30.61 in 10.0 mi Calm Calm - N/A   Clear
3:56 AM -9.9 °F - -15.0 °F 78% 30.64 in 10.0 mi Calm Calm - N/A   Clear
4:56 AM 0.1 °F - -4.0 °F 83% 30.62 in 10.0 mi Calm Calm - N/A   Clear
5:56 AM -2.9 °F - -8.0 °F 79% 30.67 in 10.0 mi Calm Calm - N/A   Clear
6:56 AM -0.9 °F - -4.9 °F 83% 30.68 in 10.0 mi Calm Calm - N/A   Clear
7:56 AM 1.0 °F -6.7 °F -2.9 °F 83% 30.69 in 10.0 mi ESE 3.5 mph - N/A   Clear
8:56 AM -1.8 °F - -6.9 °F 79% 30.70 in 10.0 mi Calm Calm - N/A   Clear
9:56 AM 6.1 °F -5.6 °F 3.0 °F 87% 30.72 in 10.0 mi ENE 6.9 mph - 0.00 in Snow Light Snow
10:56 AM 5.0 °F -4.1 °F 2.1 °F 88% 30.72 in 10.0 mi WSW 4.6 mph - 0.00 in   Clear
11:56 AM 13.1 °F 5.4 °F 10.0 °F 88% 30.64 in 10.0 mi East 4.6 mph - N/A   Clear
12:56 PM 17.1 °F 10.0 °F 13.1 °F 84% 30.63 in 10.0 mi NE 4.6 mph - N/A   Clear
1:56 PM 18.1 °F - 9.1 °F 68% 30.59 in 10.0 mi Calm Calm - N/A   Clear
2:56 PM 20.1 °F - 10.0 °F 65% 30.62 in 10.0 mi Calm Calm - N/A   Clear
3:56 PM 14.0 °F 8.2 °F 6.1 °F 71% 30.66 in 10.0 mi NE 3.5 mph - N/A   Clear
4:56 PM 17.1 °F 10.0 °F 8.1 °F 68% 30.57 in 10.0 mi South 4.6 mph - N/A   Clear
5:56 PM 11.1 °F - 7.2 °F 84% 30.62 in 10.0 mi Calm Calm - N/A   Clear
6:56 PM 3.0 °F -6.4 °F -1.8 °F 80% 30.65 in 10.0 mi SE 4.6 mph - N/A   Clear
7:56 PM 0.1 °F - -4.9 °F 79% 30.65 in 10.0 mi Calm Calm - N/A   Clear
8:56 PM -2.9 °F -11.2 °F -6.9 °F 83% 30.70 in 10.0 mi ENE 3.5 mph - N/A   Clear
9:56 PM -1.8 °F -12.0 °F -6.0 °F 83% 30.65 in 10.0 mi ESE 4.6 mph - N/A   Clear
10:56 PM -4.9 °F -13.4 °F -9.9 °F 79% 30.68 in 10.0 mi North 3.5 mph - N/A   Clear
11:56 PM -2.9 °F - -6.9 °F 83% 30.63 in 10.0 mi Calm Calm - N/A   Clear